sat.trackr.live / text

‹ back to catalog

OPS 5712 (P/L 160)

NORAD 2826 · 1967-053A

PAYLOAD ACTIVE UNKNOWN

§ Identity

Operator
Country
US
Launch date
1967-05-31
Launch site
AFWTR
Launch vehicle
Mass (kg)
RCS (m²)
0.40

Purposes: military

External: N2YO · Heavens-Above · Gunter

§ Orbital elements

Epoch: 2026-05-25T03:59:40.274304Z

Period
97.47 min
Inclination
69.9161°
Eccentricity
0.0001322
Mean motion
14.77333095 rev/d
Perigee alt
636.8 km
Apogee alt
638.7 km
Semi-major
7,015.9 km
B*
1.1033e-3
RAAN
94.7050°
Arg perigee
260.9668°
Mean anomaly
99.1330°
Rev number
6,283

§ Raw data

OPS 5712 (P/L 160)1 02826U 67053A   26145.16643836  .00007781  00000+0  11033-2 0  99962 02826  69.9161  94.7050 0001322 260.9668  99.1330 14.77333095 62838

JSON: /api/v1/satellites/2826 · /tle

For live sub-satellite position, see the globe view (requires WebGL).

§ Visibility from observer

Set your observer location to see the next 7 days of passes ≥ 10°. The values pass through the URL so the page stays shareable.

No JS? Fill the form by hand. The geolocation button needs JavaScript.